Location: Foligno
(42.9600°N, 12.7050°E)
Time: 19:50:23
(UTC+02:00)

ISS - Pass Details

Date: 22 May 2018
Orbit: 402 x 407 km, 51.6° (Epoch: 25 May)

Event Time Altitude Azimuth Distance (km) Brightness Sun altitude
Rises 03:05:24 0° 305° (NW) 2,319 0.1 -21.0°
Reaches altitude 10° 03:07:34 10° 314° (NW) 1,457 -0.9 -20.8°
Maximum altitude 03:10:39 39° 25° (NNE) 622 -2.4 -20.5°
Drops below altitude 10° 03:13:44 10° 96° (E) 1,452 -0.7 -20.2°
Sets 03:15:54 0° 105° (ESE) 2,309 0.2 -20.0°
